Overview Statistics Trail Chart Weather Telemetry Raw packets
 

This is the latest recevied weather packets stored in our database for station/object PU5FJO-13. If no packets are shown the sender has not sent any weather packets the latest 10 day(s).

<< 40 41 42 43 44 45 46 >>
Time Temp. Humidity Pressure Rain* Wind** Luminosity Snow
1777202764 20.56° C 86% 1011.8 hPa - - - -
1777202164 21.11° C 87% 1011.3 hPa - - - -
1777201564 20.56° C 86% 1011.6 hPa - - - -
1777200964 20.56° C 86% 1011.2 hPa - - - -
1777200364 20.56° C 86% 1011.4 hPa - - - -
1777199764 20.56° C 84% 1011.5 hPa - - - -
1777199164 20.56° C 85% 1011.6 hPa - - - -
1777198564 21.67° C 83% 1011.6 hPa - - - -
1777197964 21.11° C 86% 1011.9 hPa - - - -
1777197364 21.67° C 84% 1011.4 hPa - - - -
1777196764 22.22° C 80% 1011 hPa - - - -
1777196164 22.22° C 81% 1011.3 hPa - - - -
1777195564 21.67° C 83% 1011.2 hPa - - - -
1777194964 21.11° C 86% 1011.5 hPa - - - -
1777194364 20.56° C 86% 1011.8 hPa - - - -
1777193764 21.67° C 82% 1011.1 hPa - - - -
1777193164 22.78° C 79% 1010.8 hPa - - - -
1777192564 22.78° C 79% 1010.8 hPa - - - -
1777191964 22.22° C 81% 1010.7 hPa - - - -
1777191364 21.67° C 83% 1011.1 hPa - - - -
1777190764 21.67° C 83% 1011.3 hPa - - - -
1777190164 21.67° C 83% 1011 hPa - - - -
1777189564 21.67° C 82% 1011.3 hPa - - - -
1777188964 22.78° C 77% 1011.1 hPa - - - -
1777188364 23.33° C 74% 1010.8 hPa - - - -

* Rain since midnight (hover to see other rain measurements)
** Current wind speed in m/s (hover to see current wind gust speed)